Location: Zagreb
(45.8000°N, 16.0000°E)
Time: 00:42:44
(UTC+01:00)

Transit 2A Rocket - Pass Details

Date: 06 October 2020
Orbit: 586 x 916 km, 66.7° (Epoch: 28 October)

Event Time Altitude Azimuth Distance (km) Brightness Sun altitude
Rises 01:51:03 0° 318° (NW) 3,361 - -46.9°
Reaches altitude 10° 01:53:57 10° 306° (NW) 2,366 - -46.7°
Maximum altitude 01:58:18 25° 252° (WSW) 1,472 - -46.3°
Drops below altitude 10° 02:02:19 10° 198° (SSW) 2,171 - -46.0°
Sets 02:04:52 0° 185° (S) 3,027 - -45.8°
